Location: Berlin
(42.3812°N, 71.6370°W)
Time: 21:48:09
(UTC+00:00)

USA 234 - Pass Details

Date: 15 November 2025
Orbit: 1100 x 1107 km, 123.0° (Epoch: 02 December)

Event Time Altitude Azimuth Distance (km) Brightness Sun altitude
Rises 09:19:12 0° 113° (ESE) 3,920 7.3 -25.5°
Reaches altitude 10° 09:21:43 10° 110° (ESE) 2,963 6.5 -25.1°
Maximum altitude 09:28:06 58° 33° (NNE) 1,274 3.7 -23.9°
Enters shadow 09:31:46 27° 325° (NW) 2,001 4.3 -23.2°
